Back to catalog

QIANFAN-197

AliveCommunicationsPO
NORAD 69415·PAYLOAD·🇨🇳 China

Launched Jun 5, 2026 from Wenchang Space Launch Site

Loading…

Next Passes (next 24 hours)

TLE

FreshSource: Space-Track

Epoch: Sep 14, 2026, 23:17 UTC

1 69415U 26125Q   26257.97021289  .00000006  00000-0 -10009-4 0  9992
2 69415  88.9879 270.8349 0001955 100.4195 259.7176 13.51023707 14088

Track QIANFAN-197 in real time with AllMySat

Download on the App Store